[[{"header":{"parameterUnit":"m.s-1","parameterCategory":1,"la1":30.2991,"la2":30.254,"lo1":-89.0895,"lo2":-89.0444,"dy":0.0017,"dx":0.0017,"nx":28,"ny":28,"refTime":"2023-08-24T09:00:00:Z","depth":0,"parameterNumber":2,"parameterNumberName":"U-component_of_WINDS"},"data":[0,0,0,0,0,0,0,0,0,0,0,0,0,0,0,0,0,0,0,0,0,0,0,0,0,0,0,0,0,0,0,0,0,0,0,0,0,0,0,0,0,0,0,0,0,0,0,0,0,0,0,0,0,0,0,0,0,0,-0.0245,-0.0245,0,-0.022,-0.022,-0.0219,-0.0201,-0.0201,-0.0201,-0.0201,-0.0175,-0.0175,-0.0174,0,0,0,0,0,0,0,0,0,0,0,0,0,-0.0279,-0.0278,-0.0245,-0.0245,-0.0245,-0.022,-0.022,-0.0219,-0.0201,-0.0201,-0.0201,-0.0201,-0.0175,-0.0175,-0.0174,0,0,0,0,0,0,0,0,0,0,0,0,0,-0.026,-0.0278,-0.0245,-0.0233,-0.0231,-0.022,-0.022,-0.0219,-0.0201,-0.0201,-0.0201,-0.0201,-0.0176,-0.0175,-0.0174,-0.0173,0,0,-0.0171,-0.0171,0,0,0,0,0,0,0,0,-0.0261,-0.0259,-0.0235,-0.0233,-0.0232,-0.0214,-0.0222,-0.0204,-0.0202,-0.0213,-0.0201,-0.0201,-0.0188,-0.0186,-0.0182,-0.0172,-0.0171,-0.0171,-0.0171,-0.017,-0.017,0,0,0,0,0,0,0,-0.0262,-0.026,-0.0235,-0.0235,-0.0233,-0.0229,-0.0226,-0.0218,-0.0202,-0.0212,-0.021,-0.0208,-0.0187,-0.0183,-0.0181,-0.017,-0.0171,-0.0171,-0.017,-0.017,-0.0159,-0.016,0,0,0,0,0,0,-0.0266,-0.0261,-0.0236,-0.0234,-0.0246,-0.0228,-0.0225,-0.022,-0.0202,-0.0199,-0.0208,-0.0207,-0.0184,-0.0182,-0.018,-0.0179,-0.017,-0.017,-0.0169,-0.0159,-0.016,-0.016,0,0,0,0,0,0,-0.0266,-0.0264,-0.0237,-0.0247,-0.0244,-0.0228,-0.0222,-0.0219,-0.0215,-0.0199,-0.0196,-0.0206,-0.0184,-0.0181,-0.0175,-0.0178,-0.0169,-0.0169,-0.0159,-0.0159,-0.016,-0.0176,0,0,0,0,0,0,-0.0267,-0.0264,-0.0263,-0.0247,-0.0243,-0.0232,-0.0222,-0.0219,-0.0213,-0.0212,-0.0197,-0.0194,-0.0184,-0.0177,-0.0174,-0.0176,-0.0168,-0.0159,-0.0159,-0.016,-0.0175,-0.0176,-0.0178,0,0,0,0,0,-0.0269,-0.0268,-0.0263,-0.026,-0.0242,-0.0232,-0.023,-0.0218,-0.0214,-0.0213,-0.0203,-0.0195,-0.0178,-0.0176,-0.0174,-0.0175,-0.0159,-0.0159,-0.016,-0.0174,-0.0176,-0.0178,0,0,0,0,0,0,-0.0284,-0.0266,-0.026,-0.0255,-0.0245,-0.0229,-0.0228,-0.022,-0.0212,-0.0211,-0.0197,-0.0193,-0.0189,-0.0181,-0.018,-0.0174,-0.0167,-0.0167,-0.0179,-0.0181,-0.0182,-0.0184,-0.0167,0,0,0,0,0,-0.0287,-0.0281,-0.0265,-0.0262,-0.0258,-0.0244,-0.0239,-0.0231,-0.0221,-0.0217,-0.0206,-0.0197,-0.0189,-0.0185,-0.0177,-0.0174,-0.0171,-0.0174,-0.0175,-0.0177,-0.0177,-0.0175,-0.0177,-0.0161,-0.0161,-0.0161,0,0,-0.0293,-0.0282,-0.0279,-0.0265,-0.0257,-0.0251,-0.0241,-0.0235,-0.023,-0.0216,-0.0209,-0.0202,-0.019,-0.0186,-0.0183,-0.0179,-0.018,-0.0177,-0.0178,-0.0178,-0.0176,-0.0178,-0.0179,-0.0162,-0.0162,-0.0162,0,0,-0.0301,-0.0292,-0.0289,-0.0281,-0.0269,-0.026,-0.0259,-0.0244,-0.0239,-0.0232,-0.0221,-0.0216,-0.0204,-0.0196,-0.0191,-0.0197,-0.0189,-0.0195,-0.0203,-0.0202,-0.0203,-0.0204,-0.0207,-0.0208,-0.0195,-0.0195,-0.0195,0,-0.031,-0.03,-0.0288,-0.0283,-0.0277,-0.0264,-0.0261,-0.0254,-0.024,-0.0237,-0.0233,-0.0217,-0.0209,-0.0203,-0.0204,-0.02,-0.0199,-0.0196,-0.0204,-0.0205,-0.0205,-0.0208,-0.0209,-0.0196,-0.0196,-0.0196,-0.0196,0,-0.0312,-0.0306,-0.0305,-0.0292,-0.0286,-0.0282,-0.027,-0.0266,-0.0258,-0.025,-0.0244,-0.0233,-0.0223,-0.0221,-0.0214,-0.0215,-0.0213,-0.0206,-0.0199,-0.0208,-0.021,-0.0211,-0.0197,-0.0197,-0.0197,-0.0196,0,0,-0.0328,-0.031,-0.0309,-0.0304,-0.029,-0.0285,-0.0281,-0.0272,-0.0269,-0.026,-0.0256,-0.0247,-0.0241,-0.0235,-0.0226,-0.0225,-0.0232,-0.0219,-0.0219,-0.0223,-0.0233,-0.0239,-0.024,-0.0227,-0.0227,-0.0227,-0.0235,0,-0.0334,-0.0326,-0.0315,-0.0311,-0.0305,-0.0293,-0.029,-0.0281,-0.0274,-0.0268,-0.026,-0.0253,-0.0246,-0.0242,-0.0241,-0.0232,-0.0234,-0.0231,-0.0224,-0.0224,-0.0227,-0.0241,-0.0246,-0.0253,-0.0235,-0.0235,-0.0235,0,-0.034,-0.0332,-0.0327,-0.0315,-0.0312,-0.0309,-0.03,-0.0295,-0.0286,-0.028,-0.0274,-0.0265,-0.0261,-0.0254,-0.0248,-0.0246,-0.0243,-0.0238,-0.0238,-0.0237,-0.023,-0.0241,-0.0255,-0.0257,-0.0237,-0.0236,-0.0236,0,-0.0353,-0.0341,-0.0337,-0.0333,-0.0318,-0.0316,-0.031,-0.03,-0.0296,-0.0288,-0.0285,-0.0277,-0.0273,-0.0267,-0.0257,-0.0253,-0.0252,-0.0245,-0.0248,-0.0248,-0.0248,-0.0248,-0.0263,-0.0246,-0.0246,-0.0246,-0.0245,0,-0.0361,-0.0358,-0.0343,-0.034,-0.0338,-0.0326,-0.0323,-0.0316,-0.0308,-0.0304,-0.0293,-0.029,-0.0276,-0.0271,-0.0263,-0.026,-0.0258,-0.0253,-0.0251,-0.0255,-0.0255,-0.0252,-0.0252,-0.0246,-0.0246,-0.0246,-0.0246,0,-0.0375,-0.0364,-0.0359,-0.0346,-0.0343,-0.0341,-0.033,-0.0328,-0.032,-0.0315,-0.0313,-0.0301,-0.0295,-0.0284,-0.0274,-0.0269,-0.0268,-0.0264,-0.0271,-0.027,-0.0274,-0.0274,-0.0287,-0.0289,-0.027,-0.027,-0.027,0,-0.038,-0.0378,-0.0365,-0.0362,-0.0357,-0.0351,-0.0347,-0.0336,-0.0332,-0.0321,-0.032,-0.0313,-0.0307,-0.0298,-0.0288,-0.0281,-0.0278,-0.0283,-0.0276,-0.028,-0.0278,-0.0279,-0.0279,-0.0284,-0.0285,-0.0285,-0.0285,0,-0.0392,-0.0387,-0.0381,-0.0374,-0.0369,-0.0363,-0.0356,-0.0354,-0.0341,-0.0337,-0.0331,-0.0326,-0.0317,-0.0311,-0.0303,-0.0297,-0.0289,-0.0287,-0.0288,-0.0291,-0.0296,-0.0294,-0.0275,-0.0287,-0.0287,-0.0287,-0.0286,-0.0286,-0.0402,-0.04,-0.0391,-0.0385,-0.0379,-0.0373,-0.037,-0.0363,-0.0357,-0.0349,-0.0343,-0.0338,-0.0329,-0.0317,-0.0312,-0.0308,-0.0304,-0.0304,-0.0305,-0.0305,-0.0307,-0.0296,-0.0306,-0.0306,-0.0306,-0.0306,-0.0306,0,-0.0414,-0.0408,-0.0402,-0.0393,-0.0389,-0.0382,-0.0375,-0.0372,-0.0367,-0.036,-0.0354,-0.0348,-0.0342,-0.0332,-0.0326,-0.0324,-0.0321,-0.0323,-0.0323,-0.0322,-0.031,-0.0311,-0.0326,-0.0326,-0.0326,-0.0326,-0.0326,-0.0326,-0.0419,-0.0416,-0.041,-0.0404,-0.0398,-0.0393,-0.0389,-0.0384,-0.0378,-0.0372,-0.0367,-0.0361,-0.0353,-0.0345,-0.034,-0.0337,-0.0336,-0.0339,-0.0335,-0.0325,-0.0323,-0.0321,-0.0321,-0.0339,-0.0339,-0.0348,-0.0348,-0.0348]},{"header":{"parameterUnit":"m.s-1","parameterCategory":1,"la1":30.2991,"la2":30.254,"lo1":-89.0895,"lo2":-89.0444,"dy":0.0017,"dx":0.0017,"nx":28,"ny":28,"refTime":"2023-08-24T09:00:00:Z","depth":0,"parameterNumber":3,"parameterNumberName":"V-component_of_WINDS"},"data":[0,0,0,0,0,0,0,0,0,0,0,0,0,0,0,0,0,0,0,0,0,0,0,0,0,0,0,0,0,0,0,0,0,0,0,0,0,0,0,0,0,0,0,0,0,0,0,0,0,0,0,0,0,0,0,0,0,0,1.7947,1.7946,0,1.7804,1.7802,1.7801,1.7727,1.7727,1.7727,1.7726,1.7573,1.7569,1.7565,0,0,0,0,0,0,0,0,0,0,0,0,0,1.8151,1.8148,1.7947,1.7946,1.7944,1.7804,1.7802,1.78,1.7727,1.7727,1.7726,1.7726,1.7574,1.757,1.7565,0,0,0,0,0,0,0,0,0,0,0,0,0,1.8041,1.8147,1.7948,1.789,1.7884,1.7805,1.7802,1.78,1.7727,1.7727,1.7726,1.7726,1.7576,1.757,1.7564,1.7529,0,0,1.7546,1.7543,0,0,0,0,0,0,0,0,1.8047,1.8033,1.7901,1.7894,1.7887,1.7783,1.7818,1.7709,1.7727,1.7786,1.7726,1.7726,1.7643,1.7631,1.7604,1.7522,1.7515,1.7545,1.7542,1.7539,1.7537,0,0,0,0,0,0,0,1.8055,1.8039,1.789,1.7899,1.789,1.787,1.7854,1.7797,1.7716,1.7781,1.7775,1.776,1.7639,1.761,1.76,1.7513,1.7545,1.754,1.7536,1.7534,1.7395,1.7395,0,0,0,0,0,0,1.8073,1.8046,1.7895,1.7886,1.7968,1.7866,1.7849,1.7816,1.7717,1.7702,1.776,1.7757,1.7621,1.7607,1.7595,1.7547,1.7539,1.7533,1.753,1.7395,1.7395,1.7395,0,0,0,0,0,0,1.8077,1.806,1.7901,1.7964,1.7943,1.7863,1.7827,1.7814,1.7785,1.7701,1.7686,1.7746,1.762,1.7603,1.7546,1.7541,1.7531,1.7525,1.7395,1.7395,1.7395,1.7452,0,0,0,0,0,0,1.8083,1.8062,1.8049,1.7965,1.794,1.7857,1.7827,1.7811,1.7776,1.777,1.7684,1.767,1.7619,1.7556,1.7541,1.7532,1.7521,1.7395,1.7395,1.7395,1.745,1.7454,1.7457,0,0,0,0,0,1.8091,1.8069,1.8049,1.8031,1.7922,1.7857,1.7842,1.7786,1.7776,1.7761,1.7707,1.7672,1.7544,1.7551,1.7533,1.7522,1.7395,1.7395,1.7395,1.7449,1.7453,1.7457,0,0,0,0,0,0,1.8152,1.8057,1.8033,1.7984,1.793,1.7845,1.7824,1.7792,1.7738,1.7734,1.7665,1.7646,1.7596,1.7553,1.7563,1.7483,1.7466,1.7462,1.7513,1.7516,1.752,1.753,1.7516,0,0,0,0,0,1.816,1.8117,1.8036,1.8,1.7974,1.7905,1.7874,1.7836,1.7775,1.7751,1.7693,1.7634,1.758,1.7546,1.7492,1.7444,1.7424,1.7428,1.7432,1.7435,1.7432,1.7403,1.7404,1.7394,1.7394,1.7394,0,0,1.8176,1.8119,1.8095,1.8011,1.7964,1.7919,1.7885,1.7839,1.7804,1.7743,1.7687,1.7642,1.7572,1.752,1.7494,1.7483,1.743,1.7434,1.7438,1.7433,1.7403,1.7404,1.7405,1.7394,1.7394,1.7394,0,0,1.8181,1.8135,1.81,1.8054,1.7985,1.7939,1.7931,1.7851,1.782,1.7763,1.7716,1.7673,1.7582,1.7534,1.7498,1.7487,1.7453,1.7472,1.7488,1.7461,1.7462,1.7462,1.7458,1.7457,1.7469,1.7469,1.7469,0,1.8209,1.8142,1.8085,1.8042,1.8006,1.7952,1.7915,1.7873,1.7788,1.7764,1.7754,1.7639,1.7588,1.7524,1.7522,1.7494,1.7482,1.748,1.7467,1.7467,1.7466,1.7461,1.746,1.7472,1.7472,1.7471,1.7471,0,1.8178,1.8133,1.8112,1.8035,1.7997,1.7957,1.7894,1.7861,1.7827,1.7782,1.7724,1.7661,1.7594,1.7576,1.7541,1.7507,1.7502,1.7481,1.7461,1.7471,1.7465,1.7462,1.7476,1.7475,1.7474,1.7473,0,0,1.8216,1.8111,1.8104,1.8069,1.7989,1.7951,1.7909,1.7845,1.7819,1.7763,1.7725,1.765,1.763,1.7589,1.7548,1.7524,1.752,1.7505,1.7502,1.7509,1.7478,1.7495,1.7494,1.7497,1.7497,1.7496,1.7484,0,1.821,1.8134,1.8083,1.8026,1.7983,1.7931,1.7894,1.784,1.7797,1.7752,1.7704,1.7652,1.763,1.7605,1.7579,1.7526,1.7512,1.7526,1.7459,1.7458,1.7478,1.7491,1.7507,1.7499,1.7481,1.7481,1.7481,0,1.8192,1.8141,1.8081,1.8006,1.7986,1.7954,1.7892,1.7851,1.7788,1.7758,1.7714,1.7673,1.7625,1.7612,1.7544,1.7554,1.7524,1.7494,1.7492,1.7483,1.7469,1.7481,1.7495,1.7493,1.7477,1.7477,1.7477,0,1.8226,1.8141,1.8094,1.8065,1.7977,1.7956,1.7918,1.7856,1.7822,1.7767,1.7743,1.7683,1.765,1.7604,1.7547,1.7543,1.7485,1.7467,1.7457,1.7459,1.7446,1.7447,1.7455,1.7429,1.7429,1.7429,1.7429,0,1.8223,1.8188,1.8108,1.8079,1.8038,1.7979,1.794,1.7897,1.7843,1.7803,1.7754,1.7718,1.7646,1.7601,1.7556,1.7506,1.7492,1.7465,1.7453,1.7469,1.7472,1.7447,1.7446,1.7428,1.7429,1.7429,1.7429,0,1.8253,1.8198,1.8143,1.8066,1.8046,1.8019,1.7951,1.7921,1.7876,1.7827,1.7812,1.7741,1.7685,1.7625,1.7548,1.7518,1.747,1.7454,1.7492,1.7485,1.7479,1.7481,1.747,1.7465,1.7444,1.7444,1.7444,0,1.8255,1.8227,1.8147,1.8119,1.8083,1.8037,1.8002,1.7943,1.7909,1.7837,1.7814,1.7756,1.7705,1.7618,1.7559,1.75,1.7481,1.7482,1.7472,1.7489,1.748,1.7483,1.7479,1.7484,1.7485,1.7485,1.7486,0,1.8263,1.8238,1.8191,1.8135,1.8095,1.8047,1.7997,1.7976,1.7907,1.787,1.7814,1.7775,1.7699,1.764,1.7575,1.7533,1.7498,1.749,1.7484,1.7499,1.7522,1.7509,1.7499,1.749,1.7489,1.7489,1.7489,1.7489,1.8278,1.8252,1.8192,1.8141,1.8098,1.8053,1.802,1.7973,1.7926,1.786,1.7827,1.7771,1.771,1.7618,1.7578,1.7533,1.7521,1.7514,1.7511,1.751,1.7514,1.7531,1.752,1.752,1.752,1.752,1.752,0,1.8284,1.8244,1.8198,1.8131,1.8091,1.8064,1.8007,1.7975,1.7927,1.7873,1.7826,1.7761,1.7705,1.7642,1.7582,1.7557,1.7539,1.7543,1.7544,1.7535,1.7528,1.7538,1.7559,1.7559,1.7559,1.7559,1.7559,1.7559,1.8282,1.8236,1.8203,1.8135,1.8093,1.804,1.801,1.7968,1.7925,1.7856,1.781,1.777,1.7713,1.7648,1.7595,1.7578,1.7557,1.7566,1.7544,1.7538,1.7535,1.7532,1.7542,1.7562,1.7562,1.7554,1.7554,1.7554]}]]